Home   Weather   Valdez   Past weeks
Flag for USA

Past Weather in Valdez, Alaska, USA — Yesterday and Last 2 Weeks

Now
65 °F

Broken clouds.


Feels Like: 65 °F
Forecast: 58 / 48 °F
Wind: 5 mph from West

Location: Valdez 2

Current Time: Jul 22, 2019 at 6:57:48 pm

Latest Report: Jul 22, 2019 at 5:56 pm


Visibility: 10 mi

Pressure: 30.08 "Hg

Humidity: 78%

Dew Point: 58 °F

Location of ValdezLocation

Past Weather in Valdez — Graph

°F

Valdez Temperature Yesterday

Maximum temperature yesterday: 70 °F (at 3:56 pm)
Minimum temperature yesterday: 52 °F (at 6:11 am)
Average temperature yesterday: 61 °F

High & Low Weather Summary for the Past Weeks

 TemperatureHumidityPressure
High74 °F (Jul 7, 5:56 pm)100% (Jul 12, 2:10 am)30.19 "Hg (Jul 12, 2:10 am)
Low46 °F (Jul 17, 5:09 am)47% (Jul 8, 8:56 pm)29.58 "Hg (Jul 17, 6:12 am)
Average57 °F80%29.96 "Hg
* Reported Jul 7 4:56 pm — Jul 22 4:56 pm, Valdez. Weather by CustomWeather, © 2019

Note: Actual official high and low records may vary slightly from our data, if they occured in-between our weather recording intervals... More about our weather records

Advertising

Valdez Weather History for the Previous 24 Hours

Scroll right to see more
 ConditionsComfort  
Time TempWeatherWind HumidityBarometerVisibility
4:56 pm
Mon, Jul 22
64 °FPartly sunny.3 mph78%30.10 "Hg10 mi
3:56 pm63 °FMostly cloudy.5 mph81%30.11 "Hg10 mi
2:56 pm63 °FMostly cloudy.5 mph81%30.13 "Hg10 mi
1:56 pm62 °FPartly sunny.3 mph78%30.14 "Hg10 mi
12:56 pm62 °FPartly sunny.No wind75%30.15 "Hg10 mi
11:56 am62 °FOvercast.3 mph78%30.15 "Hg9 mi
10:56 am60 °FOvercast.3 mph80%30.15 "Hg9 mi
9:56 am59 °FOvercast.No wind75%30.16 "Hg9 mi
8:56 am58 °FOvercast.No wind75%30.16 "Hg10 mi
7:56 am57 °FOvercast.No wind74%30.14 "Hg10 mi
6:56 am55 °FPartly sunny.5 mph77%30.14 "Hg10 mi
6:11 am52 °FPartly sunny.5 mph82%30.08 "Hg10 mi
4:56 am51 °FMostly cloudy.6 mph80%30.14 "Hg10 mi
3:56 am52 °FOvercast.5 mph80%30.15 "Hg10 mi
2:56 am53 °FOvercast.5 mph77%30.16 "Hg10 mi
1:56 am52 °FOvercast.5 mph80%30.16 "Hg10 mi
12:56 am53 °FOvercast.7 mph77%30.16 "Hg10 mi
11:56 pm
Sun, Jul 21
54 °FPassing clouds.5 mph77%30.14 "Hg10 mi
10:56 pm59 °FPassing clouds.7 mph75%30.14 "Hg10 mi
9:56 pm58 °FScattered clouds.6 mph70%30.13 "Hg10 mi
8:56 pm67 °FPartly sunny.6 mph66%30.12 "Hg10 mi
7:56 pm68 °FScattered clouds.14 mph63%30.11 "Hg10 mi
6:56 pm69 °FPassing clouds.16 mph63%30.10 "Hg10 mi
Weather by CustomWeather, © 2019

See weather overview